Het weer op Woensdrecht:2014/07/29 22:25 EHWO 292225Z AUTO 35005KT 9999 OVC280 18/16 Q1012 BLU
Het weer op Amsterdam:2014/07/29 22:25 EHAM 292225Z 31006KT CAVOK 16/15 Q1013 NOSIG

Menu promotie
· Startpagina
· Verslag FLY-IN 2009
· De vloot
· Kennismaken


Buien Radar


Picasa foto link
ACV externe fotolink


Inloggen voor leden
WelkomAnonymous!


Lid nummer    
Wachtwoord 
Code: Code
Type Code in
[Wachtwoord vergeten?]


 
Sorry, deze module is niet actief (acv_addon_4)

[ Ga terug ]
copyright (c) ACV 2006 - 2014

All logos and trademarks in this site are property of their respective owner. The comments are property of their posters, all the rest 2005 by me.
PHP-Nuke Copyright © 2005 by Francisco Burzi. This is free software, and you may redistribute it under the GPL. PHP-Nuke comes with absolutely no warranty, for details, see the license.
Pagina Rendering: 0.33 Seconden